Regional Weather Roundup
Issued by NWS

Home | Current Version | Previous Version | Graphics & Text | Print | Product List | Glossary On
Versions: 1 2 3 4 5 6 7 8 9 10 11 12 13 14 15 16 17 18 19 20 21 22 23 24 25 26 27 28 29 30 31 32 33 34 35 36 37 38 39 40 41 42 43 44 45 46 47 48 49 50
177
ASUS45 KBOU 232207
RWRCO

WEATHER ROUNDUP FOR COLORADO
NATIONAL WEATHER SERVICE DENVER/BOULDER CO
400 PM MDT SUN JUL 23 2017

NOTE: "FAIR" INDICATES FEW OR NO CLOUDS BELOW 12000 FEET WITH NO
SIGNIFICANT WEATHER AND/OR OBSTRUCTIONS TO VISIBILITY.

COZ001>005-013-030-031-232300-
...NORTHWEST COLORADO...

CITY           SKY/WX    TMP DP  RH WIND       PRES   REMARKS
CRAIG          FAIR      90  25   9 VRB7      30.15F
HAYDEN         FAIR      88  27  11 N9        30.18F
MEEKER         FAIR      90  24   9 SW5       30.16F
RABBIT EARS PA MOCLDY    70  36  28 W5        30.54F
STEAMBOAT SPGS FAIR      87  29  12 N7        30.20F
WALDEN         FAIR      79  28  15 NE6       30.34F
$$

COZ006>008-011-232300-
...WEST CENTRAL VALLEYS...

CITY           SKY/WX    TMP DP  RH WIND       PRES   REMARKS
GRAND JUNCTION FAIR      96  26   8 S6        30.02F
MONTROSE       FAIR      91  43  18 SW9       30.12F
EAGLE          SUNNY     90  36  14 NW12      30.18F
RIFLE          FAIR      93  33  12 VRB6      30.07F
DELTA          FAIR      98  34  10 S10G16    30.05F
NUCLA          FAIR      88  41  19 SE20G30   30.18R
$$

COZ017>023-064>068-232300-
...SOUTHWEST COLORADO...

CITY           SKY/WX    TMP DP  RH WIND       PRES   REMARKS
DURANGO        FAIR      77  45  32 NE23G35   30.22F
CORTEZ         PTSUNNY   86  46  24 NE8       30.14S
PAGOSA SPRINGS FAIR      79  35  20 S5        30.31S
TELLURIDE      TSTM      59  52  78 E8        30.49F
WOLF CREEK PAS FAIR      57  32  38 E5        30.70S
$$

COZ009-010-012-014-032>034-037-058>063-232300-
...CENTRAL COLORADO...

CITY           SKY/WX    TMP DP  RH WIND       PRES   REMARKS
ASPEN          FAIR      83  38  20 W9G17     30.26F
BUENA VISTA    FAIR      77  37  23 SE8       30.33F
COPPER MTN     PTSUNNY   59  37  44 SE12G23   30.67S
BERTHOUD PASS  FAIR      50  36  57 SE13G22   30.72F
COTTONWOOD PAS FAIR      73  34  23 CALM      30.50F
GUNNISON       FAIR      80  41  24 SE9       30.27F
KREMMLING      FAIR      95  12   5 SW6       30.26F
LEADVILLE      PTSUNNY   72  29  20 S15G21    30.46S
MONARCH PASS   LGT RAIN  59  36  41 NE6       30.77F
SALIDA         FAIR      83  35  17 SE9G16    30.35F
SUNLIGHT       FAIR      63  36  36 W6        30.57F
WILKERSON PASS TSTM      43  39  87 NE14G28   30.67R VSB 3/4
$$

COZ069>075-232300-
...SAN LUIS VALLEY/SANGRE DE CRISTO MOUNTAINS...

CITY           SKY/WX    TMP DP  RH WIND       PRES   REMARKS
ALAMOSA        FAIR      77  50  38 S14       30.29F
DEL NORTE      FAIR      79  36  21 E3        30.33F
LA VETA PASS   NOT AVBL
SAGUACHE         N/A    N/A N/A N/A MISG        N/A
$$

COZ035-036-038>040-232300-
...NORTHERN COLORADO FRONT RANGE...

CITY           SKY/WX    TMP DP  RH WIND       PRES   REMARKS
DENVER INTL AP PTSUNNY   89  44  20 SE10      30.14F
DMNS CITY PARK   N/A     86  44  23 SE5G15    30.13S
AURORA         PTSUNNY   87  46  24 E6        30.16F
FRONT RANGE AP FAIR      88  43  20 E8        30.16F
ERIE MUNI ARPT FAIR      93  33  12 S5        30.11F
BOULDER MUN AP FAIR      91  39  16 E5        30.12F
CENTENNIAL     PTSUNNY   86  44  23 SE10      30.17F
BROOMFIELD     FAIR      90  39  17 SE5       30.16F
FORT COLLINS   FAIR      89  50  26 CALM      30.12F
LONGMONT       FAIR      95  46  18 N7        30.12F
$$

COZ041-046-047-076>085-087-088-232300-
...PIKES PEAK/PALMER DIVIDE AND SOUTHERN FOOTHILLS...

CITY           SKY/WX    TMP DP  RH WIND       PRES   REMARKS
COLO. SPRINGS  PTSUNNY   84  45  25 VRB7      30.23F
A. F. ACADEMY  FAIR      78  47  33 S9        30.25S
SCHRIEVER AFB  FAIR      81  48  32 SE13      30.24F
CHEYENNE MTN   PTSUNNY   79  43  27 E7        30.24F
ELLICOTT       FAIR     N/A N/A N/A S13       30.22F
FALCON           N/A     79  44  29 S15       30.29F
FORT CARSON    FAIR      85  49  28 E8        30.19F
LIMON          FAIR      86  47  25 E12       30.17F
MONUMENT HILL  FAIR      77  43  29 SE8G16    30.31S
CANON CITY     SUNNY     90  50  25 E10G20    30.14F
WALSENBURG     MOCLDY    90  45  20 NE9       30.20F
TRINIDAD       FAIR      89  42  19 NE7       30.17F
$$

COZ042>045-048>051-090-091-232300-
...NORTHEAST COLORADO...

CITY           SKY/WX    TMP DP  RH WIND       PRES   REMARKS
GREELEY ARPT   FAIR      90  49  24 VRB6      30.10F
AKRON          FAIR      91  42  18 S9        30.12F
BURLINGTON     FAIR      90  53  28 SE13      30.11F
WRAY           NOT AVBL
YUMA           FAIR      90  32  12 SE7G16    30.09F
STERLING       FAIR      93  46  20 S9        30.06F
HOLYOKE        FAIR      97  45  16 S7        30.07F
FORT MORGAN    FAIR      96  38  13 SE10      30.10F
$$

COZ086-089-092>099-232300-
...SOUTHEAST COLORADO...

CITY           SKY/WX    TMP DP  RH WIND       PRES   REMARKS
PUEBLO         FAIR      93  40  15 VRB5      30.08F
LA JUNTA       FAIR      92  51  24 E14G25    30.08F
LAMAR          FAIR      91  57  31 E10G20    30.04F
SPRINGFIELD      N/A     86  58  38 E10G21    30.09F
$$




USA.gov is the U.S. government's official web portal to all federal, state and local government web resources and services.